Weather in Tuma

Russia / Ryazan Oblast     55°08′50″N   40°33′19″E
temp.,
°C
wind,
m/s
gust,
m/s
humid.,
%
clouds,
%
prec.,
mm/h
press.,
hPa
HPBL,
m
4 march, thu
thu400:00−1w5119299 0.2 1007745
03:00−2wsw6139399 0.3 1005724
06:000wsw71497100 0.3 1001912
09:00+1w71490100 0.9 9991021
12:000w61297100 0.1 999930
15:000nw3794100 0.8 999589
18:00−1w2388100 0.1 99980
21:00−3nnw2290100 0.1 100051
5 march, fri
fri500:00−5nnw2396100 0.1 1001115
03:00−8nnw2296100 0.2 100332
06:00−9nw239786 0.1 100435
09:00−7wnw259465 0.1 1006228
12:00−3w358585 0.0 1007763
15:00−2w477792 0.5 10091060
18:00−6wnw368731 0.3 1010116
21:00−9wnw239145 0.4 101360
6 march, sat
sat600:00−11nnw22933 0.0 101521
03:00−13nne129310 0.0 101620
06:00−14e11880 0.0 101620
09:00−11se128525 0.0 1016113
12:00−6se118790 0.1 1016351
15:00−5ene119095 0.6 1015319
18:00−7nne3694100 0.8 1015299
21:00−12n229593 0.9 101630
7 march, sun
sun700:00−13sw22950 0.0 101520
03:00−13ssw38910 0.0 1012179
06:00−12ssw5139052 0.0 1009367
09:00−8sw7149176 0.2 1005700
12:00−5sw81592100 0.5 10001182
15:00−4sw81493100 2.6 9961149
18:00−5wnw61284100 2.1 9961065
21:00−10w3108075 2.1 999245
8 march, mon
mon800:00−11sw412810 0.0 999326
03:00−10sw4128642 0.0 998398
06:00−11ssw4119047 0.0 996328
09:00−7sw5109474 0.8 995757
12:00−7w5881100 0.5 9961156
15:00−6wnw6977100 0.8 10001374
18:00−9wnw51186100 0.2 1004930
21:00−12w4109175 0.2 1008336